THORAD AGENA D DEB

Satellite information

Favourite Embed

Satellite Type and Status

DEBRISIN ORBIT

Key statistics

Satellite THORAD AGENA D DEB at a glance.

Uptime

20117

Days in orbit

Revolutions

≈ 14.6

Per day

Orbit

SSO

Sun Synchronous Orbit

Inclination

100.0

Latest

Satellite identification and parameters

Extended collection of information and parameters for THORAD AGENA D DEB.

Object identification

Identified? True

Debris? True

Object name: THORAD AGENA D DEB

International designator: 1970-025BX

Object number (NORAD): 4709

Object ID (CCSDS): 4709

Country: UNITED STATES OF AMERICA (US)

Current information (Y/N): Y

RCS size: SMALL

Orbital parameters

Period: 98.863 minutes

Inclination: 100.0417 deg

SMA: 7082.418 km

Apoapsis: 757.572 km

Periapsis: 650.994 km

RAAN: 325.7899 deg

Eccentricy: 0.0075241

Argument of periapsis: 240.281 deg

Mean anomaly: 119.0879 deg

Mean motion: 14.56566875 rev/day

Mean motion (dot): 0.00006402 rev/day2

B* drag term: 0.0013966 1/REarth

Two-line elements (TLE)

Creation date: May 5, 2025, 2:16 p.m.

Reference frame: TEME

Reference center: EARTH

Epoch: May 5, 2025, 12:12 p.m. UTC

TLE line 0: 0 THORAD AGENA D DEB

TLE line 1: 1 4709U 70025BX 25125.50892782 .00006402 00000-0 13966-2 0 9999

TLE line 2: 2 4709 100.0417 325.7899 0075241 240.2810 119.0879 14.56566875844255

Live tracking on map

Real-time ground track for satellite THORAD AGENA D DEB.

In-orbit conjunctions

A list of the most updated potential collisions computed for object THORAD AGENA D DEB.

Target Orbit TCA Probability of collision Miss distance Type
THORAD AGENA D DEB LEO 2025-03-30 04:50:08 0.0001157649 161.0 (m) DEBRIS
DELTA 1 DEB SSO 2024-11-02 08:05:40 0.0001982508 80.0 (m) DEBRIS

Associated space launch

Meteorological research and development satellite

THORAD AGENA D DEB was lifted into orbit during the mission ‘Thorad SLV-2G Agena D | Nimbus 4’, on board a Thorad SLV-2G Agena D space rocket.

The launch took place on April 8, 1970, 8:17 a.m. from Space Launch Complex 2E.

For more information about the launch, click the button.

Launch to space Thorad SLV-2G Agena D | Nimbus 4
Thorad SLV-2G Agena D | Nimbus 4

Agency: N/A

Status: Launch Successful

Launch date: April 8, 1970, 8:17 a.m. UTC

Rocket: Thorad SLV-2G Agena D

Launch pad: Space Launch Complex 2E

Location: Vandenberg SFB, CA, USA

...

Latest news about this satellite

There are no fresh news available about this satellite. Check back as we update our databases every day.


Newsletter sign-up

Weekly statistics, charts and insights to help you stay on top of the space industry.